Miscellaneous Local Product
Issued by NWS North Platte, NE

Home | Current Version | Previous Version | Graphics & Text | Print | Product List | Glossary On
Versions: 1 2 3 4 5 6 7 8 9 10 11 12 13 14 15 16 17 18 19 20 21 22 23 24 25 26 27 28 29 30 31 32 33 34 35 36 37 38 39 40 41 42 43 44 45 46 47 48 49 50
000
AXUS43 KLBF 230710
MISLBF


WESTERN AND NORTH CENTRAL NEBRASKA HOURLY WEATHER ROUNDUP
NATIONAL WEATHER SERVICE NORTH PLATTE NE
200 AM CDT SAT MAY 23 2015

***STATIONS NOT REPORTING VARIABLES SUCH AS SKY/WEATHER OR
PRESSURE ARE PROVIDED BY THE NEBRASKA DEPARTMENT OF
ROADS...RAWS...AND APRS NETWORKS...AND ARE NOT UNDER
NATIONAL WEATHER SERVICE QUALITY CONTROL***

...OBSERVATIONS IN AND NEAR THE EASTERN PANHANDLE OF NEBRASKA...

CITY           SKY/WX    TMP DP  RH WIND       PRES   REMARKS
PINE RIDGE     CLOUDY    48  42  80 SE6       30.07F
CHADRON        CLOUDY    47  44  90 SE6       30.06F
ALLIANCE       CLOUDY    46  44  93 SE12      30.06S
SIDNEY         FOG       46  46 100 SE8       30.06S VSB 1/2
WHITECLAY        N/A     44  41  89 SE10        N/A
BIG SPRINGS      N/A     51  50  98 SE9         N/A
$$

...OBSERVATIONS IN NORTH CENTRAL NEBRASKA...

CITY           SKY/WX    TMP DP  RH WIND       PRES   REMARKS
VALENTINE      CLOUDY    48  46  93 E5        30.12F
THEDFORD       DRIZZLE   49  48  97 SE7       30.10F
AINSWORTH      DRIZZLE   49  49  98 SE8       30.13S
O`NEILL        CLOUDY    52  50  95 E6        30.16S
ORD            CLOUDY    51  50  96 SE7       30.13F FOG
BROKEN BOW     CLOUDY    52  51  97 SE12      30.10F FOG
VALENTINE NWR    N/A     47  47  99 SE8G15      N/A
SPRINGVIEW       N/A     48  46  94 E3          N/A
ROSE             N/A     49  49  99 E10         N/A
NEWPORT          N/A     48  48  99 E5          N/A
SARGENT          N/A     51  50  98 CALM        N/A
COMSTOCK         N/A     55  55  99 S14         N/A
EWING            N/A     52  50  92 CALM        N/A
$$

...OBSERVATIONS IN SOUTHWEST NEBRASKA AND FAR NORTHEAST COLORADO...

CITY           SKY/WX    TMP DP  RH WIND       PRES   REMARKS
WRAY           HVY RAIN N/A N/A N/A SE10      30.07R
IMPERIAL       RAIN      52  51  97 SE17      30.06S
OGALLALA       CLOUDY    49  49  99 E3        30.07S FOG
NORTH PLATTE   CLOUDY    51  50  96 SE7       30.08F
MCCOOK         CLOUDY    54  53  97 SE10      30.08F FOG
LEXINGTON      CLOUDY    54  53  97 SE10G17   30.11F FOG
PAXTON           N/A     51  50  96 SE10        N/A
GOTHENBURG       N/A     53  51  94 SE8         N/A
CALLAWAY         N/A     52  51  98 SE12        N/A
$$

...NORTH PLATTE AREA...

CITY           SKY/WX    TMP DP  RH WIND       PRES   REMARKS
AIRPORT        CLOUDY    51  50  96 SE7       30.08F
DOWNTOWN         N/A     51  50  96 SE5         N/A
$$

...SOME WEATHER OBSERVATIONS FROM AROUND THE REGION...

CITY           SKY/WX    TMP DP  RH WIND       PRES   REMARKS
DENVER         CLOUDY    48  46  93 CALM      30.05S
LARAMIE        CLOUDY    40  38  93 S18       30.04S WCI  31
CHEYENNE       CLOUDY    43  41  93 S8        30.05S
SCOTTSBLUFF    CLOUDY    46  45  96 SE12      30.07R
RAPID CITY     CLOUDY    48  44  86 S12       30.06F
PIERRE         CLOUDY    49  42  77 SE8       30.13S
WINNER         CLOUDY    51  45  79 SE6       30.14F
SIOUX FALLS    CLOUDY    57  44  62 S9        30.21R
OMAHA          CLOUDY    60  49  66 SE10      30.19S
GRAND ISLAND   CLOUDY    54  50  86 SE9       30.15F
KANSAS CITY    CLOUDY    61  52  72 S9        30.20S
WICHITA        CLOUDY    55  54  96 S8        30.16S FOG
HAYS           CLOUDY    54  48  82 SE13G18   30.13S
LIBERAL        CLOUDY    57  54  88 S13G18    30.06F
GOODLAND       LGT RAIN  53  53 100 SE17G33   30.03S FOG
$$



USA.gov is the U.S. government's official web portal to all federal, state and local government web resources and services.